User: anonymous   Login
Location: Caltech
(34.1382°N, 118.1253°W)
Time: 11:47:59
(UTC-07:00)
Language:

CZ-2C R/B - Orbit

View from above orbital plane
View from above orbital plane
View from above satellite
View from above satellite

Ground track
Ground track

The orbit data is extracted from the following two-line orbital elements,

1 36089U 09061B   16211.96030041 +.00000017 +00000-0 +15638-4 0  9991
2 36089 098.0512 222.1493 0081183 318.8974 096.9927 14.49588461354933
Epoch (UTC): 29 July 2016 23:02:49
Eccentricity: 0.0081183
inclination: 98.0512°
perigee height: 669 km
apogee height: 784 km
right ascension of ascending node: 222.1493°
argument of perigee: 318.8974°
revolutions per day: 14.49588461
mean anomaly at epoch: 96.9927°
orbit number at epoch: 35493

The dashed part of the orbit path shows where the satellite is in the earth's shadow,  

DLR